Location: Marcé
(47.5801°N, 0.3280°W)
Time: 03:40:01
(UTC+01:00)

Vanguard 1 Rocket - Pass Details

Date: 04 December 2021
Orbit: 651 x 4225 km, 34.3° (Epoch: 26 January)

Event Time Altitude Azimuth Distance (km) Brightness Sun altitude
Exits shadow 04:50:42 41° 207° (SSW) 3,218 9.8 -36.4°
Maximum altitude 04:55:07 50° 168° (SSE) 3,337 10.1 -35.7°
Drops below altitude 10° 05:15:57 10° 103° (ESE) 7,147 12.7 -32.2°
Sets 05:22:23 0° 99° (E) 8,395 13.4 -31.1°
